Regional Weather Roundup
Issued by NWS Sioux Falls, SD

Home | Current Version | Previous Version | Graphics & Text | Print | Product List | Glossary Off
Versions: 1 2 3 4 5 6 7 8 9 10 11 12 13 14 15 16 17 18 19 20 21 22 23 24 25 26 27 28 29 30 31 32 33 34 35 36 37 38 39 40 41 42 43 44 45 46 47 48 49 50

000
ASUS43 KFSD 202002
RWRFSD

WEATHER ROUNDUP FOR SE SOUTH DAKOTA/SW MINNESOTA/NW IOWA
NATIONAL WEATHER SERVICE SIOUX FALLS SD
300 PM CDT SUN APR 20 2014

NOTE: "FAIR" INDICATES FEW OR NO CLOUDS BELOW 12,000 FEET WITH NO
SIGNIFICANT WEATHER AND OR OBSTRUCTIONS TO VISIBILITY.


SDZ038>040-050-052>070-202100-
SOUTHEAST SOUTH DAKOTA

CITY           SKY/WX    TMP DP  RH WIND       PRES   REMARKS
CHAMBERLAIN      N/A     79  31  17 S14G20    29.90F
HURON          SUNNY     78  28  16 S12G21    29.91F
MADISON        FAIR      75  37  25 S15G22    29.94F
MITCHELL       SUNNY     80  42  25 E15G28    29.91F
SIOUX FALLS    SUNNY     78  47  33 E13       29.93F
WINNER         FAIR      80  40  23 SE14      29.89F
YANKTON        MOSUNNY   73  48  40 E9        29.92F
$$

MNZ071-072-080-081-089-090-097-098-202100-
SOUTHWEST MINNESOTA

CITY           SKY/WX    TMP DP  RH WIND       PRES   REMARKS
FAIRMONT       SUNNY     73  50  43 CALM      29.98F
JACKSON        SUNNY     75  45  33 E6        29.97F
LUVERNE        SUNNY     79  43  27 E7        29.94F
MARSHALL       SUNNY     73  36  25 E9G18     29.96F
MONTEVIDEO     SUNNY     75  36  23 SE8       29.98F
PIPESTONE      SUNNY     75  36  23 SE10G17   29.96F
REDWOOD FALLS  SUNNY     75  32  20 MISG      29.96F
TRACY          SUNNY     75  33  21 E9G18     29.97F
WINDOM         SUNNY     73  48  40 NE7       29.97F
WORTHINGTON    SUNNY     73  45  35 E9        29.98F
$$

IAZ001>003-012>014-020>022-031-032-NEZ013-014-SDZ071-202100-
NORTHWEST IOWA

CITY           SKY/WX    TMP DP  RH WIND       PRES   REMARKS
CHEROKEE       PTSUNNY   77  53  43 S10       29.93F
DENISON        MOSUNNY   82  52  34 SW17G26   29.93S
ESTHERVILLE    SUNNY     74  55  51 S14       29.95F
SHELDON        MOSUNNY   75  52  43 S9        29.93F
SIOUX CITY     PTSUNNY   80  53  39 SE10G18   29.91F
SPENCER        MOSUNNY   74  53  48 VRB6      29.94F
STORM LAKE     MOSUNNY   77  52  41 S16       29.95F
$$

ABBREVIATIONS USED IN REMARKS
   TC - TEMPERATURE IN CELSIUS
  WCI - WIND CHILL INDEX
   HX - HEAT INDEX
  VSB - VISIBILITY




USA.gov is the U.S. government's official web portal to all federal, state and local government web resources and services.